HAL15 KSAN-PHNL

Flight info

Callsign HAL15
Flight time N/A
Altitude 34000
Route PADRZ2 IKAYE DCT MQO DCT AUDIA DCT ADUMM DCT CUNDU DCT BILLO/N0462F400 R464 BITTA MAGGI3
Aircraft A332/H-SDFGHIRWY/L

Departure

Time 2026-05-07 05:02
Airport San Diego International Airport (KSAN)

Arrival

Time N/A
Airport Daniel K. Inouye International Airport (PHNL)
Time Latitude Longitude Altitude Speed Heading
2026-05-07 04:35 32.73258 -117.20716 21 ft 0 kts 170°
2026-05-07 04:48 32.73265 -117.20718 21 ft 2 kts 171°
2026-05-07 04:48 32.73277 -117.20719 21 ft 2 kts 186°
2026-05-07 04:49 32.73291 -117.20715 21 ft 2 kts 202°
2026-05-07 04:49 32.73305 -117.20707 21 ft 2 kts 217°
2026-05-07 04:49 32.73316 -117.20695 21 ft 2 kts 232°
2026-05-07 04:49 32.73324 -117.20681 21 ft 2 kts 246°
2026-05-07 04:50 32.73328 -117.20665 21 ft 2 kts 261°
2026-05-07 04:50 32.73329 -117.20647 21 ft 2 kts 276°
2026-05-07 04:50 32.73328 -117.20638 21 ft 0 kts 282°
2026-05-07 04:53 32.73330 -117.20647 21 ft 2 kts 287°
2026-05-07 04:53 32.73339 -117.20664 21 ft 3 kts 309°
2026-05-07 04:53 32.73354 -117.20677 21 ft 1 kts 336°
2026-05-07 04:53 32.73365 -117.20679 21 ft 5 kts 353°
2026-05-07 04:54 32.73423 -117.20686 22 ft 11 kts 356°
2026-05-07 04:54 32.73518 -117.20682 24 ft 14 kts
2026-05-07 04:54 32.73592 -117.20628 24 ft 10 kts 54°
2026-05-07 04:54 32.73607 -117.20544 24 ft 10 kts 93°
2026-05-07 04:55 32.73604 -117.20457 24 ft 11 kts 92°
2026-05-07 04:55 32.73592 -117.20358 24 ft 12 kts 108°
2026-05-07 04:55 32.73565 -117.20257 24 ft 14 kts 106°
2026-05-07 04:55 32.73538 -117.20143 24 ft 14 kts 105°
2026-05-07 04:56 32.73512 -117.20030 24 ft 13 kts 105°
2026-05-07 04:56 32.73486 -117.19924 24 ft 13 kts 107°
2026-05-07 04:56 32.73460 -117.19823 24 ft 12 kts 107°
2026-05-07 04:56 32.73436 -117.19723 25 ft 16 kts 105°
2026-05-07 04:57 32.73400 -117.19570 26 ft 19 kts 106°
2026-05-07 04:57 32.73365 -117.19422 27 ft 18 kts 105°
2026-05-07 04:57 32.73329 -117.19276 27 ft 20 kts 106°
2026-05-07 04:57 32.73286 -117.19098 27 ft 22 kts 105°
2026-05-07 04:58 32.73242 -117.18916 26 ft 22 kts 107°
2026-05-07 04:58 32.73197 -117.18739 25 ft 22 kts 107°
2026-05-07 04:58 32.73151 -117.18565 24 ft 21 kts 108°
2026-05-07 04:58 32.73109 -117.18396 24 ft 20 kts 102°
2026-05-07 04:59 32.73079 -117.18232 24 ft 20 kts 102°
2026-05-07 04:59 32.73042 -117.18076 24 ft 19 kts 110°
2026-05-07 04:59 32.73000 -117.17933 26 ft 17 kts 107°
2026-05-07 04:59 32.72966 -117.17800 28 ft 15 kts 106°
2026-05-07 05:00 32.72952 -117.17698 29 ft 9 kts 87°
2026-05-07 05:00 32.72968 -117.17629 30 ft 7 kts 67°
2026-05-07 05:00 32.72992 -117.17584 31 ft 4 kts 27°
2026-05-07 05:00 32.73010 -117.17588 31 ft 2 kts 328°
2026-05-07 05:01 32.73023 -117.17605 31 ft 3 kts 303°
2026-05-07 05:01 32.73033 -117.17638 31 ft 7 kts 285°
2026-05-07 05:01 32.73106 -117.17939 28 ft 77 kts 286°
2026-05-07 05:01 32.73328 -117.18855 28 ft 150 kts 286°
2026-05-07 05:02 32.73637 -117.20179 469 ft 172 kts 285°
2026-05-07 05:02 32.73872 -117.21256 1296 ft 161 kts 291°
2026-05-07 05:02 32.74324 -117.22115 1921 ft 162 kts 314°
2026-05-07 05:02 32.74752 -117.22713 2335 ft 168 kts 310°
2026-05-07 05:03 32.75481 -117.23898 2981 ft 187 kts 307°
2026-05-07 05:03 32.76233 -117.25193 3692 ft 202 kts 306°
2026-05-07 05:03 32.76590 -117.25822 3991 ft 212 kts 306°
2026-05-07 05:03 32.77416 -117.27292 4719 ft 235 kts 306°
2026-05-07 05:04 32.78342 -117.28957 5644 ft 251 kts 306°
2026-05-07 05:04 32.78992 -117.30131 6237 ft 264 kts 306°
2026-05-07 05:04 32.79980 -117.31953 7202 ft 267 kts 303°
2026-05-07 05:04 32.81057 -117.33793 7663 ft 274 kts 316°